Location: Koslow
(50.3020°N, 18.5663°E)
Time: 07:52:22
(UTC+00:00)

STARLINK-1357 - Pass Details

Date: 01 October 2020
Orbit: 548 x 551 km, 53.0° (Epoch: 31 October)

Event Time Altitude Azimuth Distance (km) Brightness Sun altitude
Exits shadow 02:41:16 60° 274° (W) 633 3.6 -20.4°
Maximum altitude 02:41:56 79° 343° (NNW) 567 3.6 -20.3°
Drops below altitude 10° 02:46:06 10° 70° (ENE) 1,832 7.5 -19.7°
Sets 02:48:21 0° 72° (ENE) 2,728 8.8 -19.4°
